Time,TemperatureF,DewpointF,PressureIn,WindDirection,WindDirectionDegrees,WindSpeedMPH,WindSpeedGustMPH,Humidity,HourlyPrecipIn,Conditions,Clouds,dailyrainin,SoftwareType,DateUTC
2013-12-17 00:05:00,3.5,-8.0,30.32,SW,233,3.0,3.0,58,0.00,,,0.00,Wunderground v.1.15,2013-12-17 05:05:00,
2013-12-17 00:10:00,3.5,-8.0,30.32,SW,218,3.0,3.0,58,0.00,,,0.00,Wunderground v.1.15,2013-12-17 05:10:00,
2013-12-17 00:15:00,3.5,-8.0,30.31,SW,232,1.0,1.0,58,0.00,,,0.00,Wunderground v.1.15,2013-12-17 05:15:00,
2013-12-17 00:20:00,3.8,-7.7,30.31,WSW,252,2.0,2.0,58,0.00,,,0.00,Wunderground v.1.15,2013-12-17 05:20:00,
2013-12-17 00:25:00,4.0,-7.9,30.31,SW,219,2.0,6.0,57,0.00,,,0.00,Wunderground v.1.15,2013-12-17 05:25:00,
2013-12-17 00:30:00,4.0,-8.2,30.32,SSW,206,3.0,6.0,56,0.00,,,0.00,Wunderground v.1.15,2013-12-17 05:30:00,
2013-12-17 00:35:00,4.3,-8.0,30.32,South,182,4.0,6.0,56,0.00,,,0.00,Wunderground v.1.15,2013-12-17 05:35:00,
2013-12-17 00:40:00,4.6,-8.0,30.32,SW,223,4.0,6.0,55,0.00,,,0.00,Wunderground v.1.15,2013-12-17 05:40:00,
2013-12-17 00:45:00,4.8,-8.2,30.32,WSW,255,4.0,4.0,54,0.00,,,0.00,Wunderground v.1.15,2013-12-17 05:45:00,
2013-12-17 00:50:00,4.9,-8.1,30.31,WNW,302,4.0,4.0,54,0.00,,,0.00,Wunderground v.1.15,2013-12-17 05:50:00,
2013-12-17 00:55:00,4.8,-8.2,30.31,West,263,4.0,4.0,54,0.00,,,0.00,Wunderground v.1.15,2013-12-17 05:55:00,
2013-12-17 01:00:00,4.4,-8.2,30.31,SW,230,4.0,4.0,55,0.00,,,0.00,Wunderground v.1.15,2013-12-17 06:00:00,
2013-12-17 01:05:00,4.0,-8.2,30.31,SW,236,4.0,4.0,56,0.00,,,0.00,Wunderground v.1.15,2013-12-17 06:05:00,
2013-12-17 01:10:00,3.9,-8.3,30.32,SSW,192,2.0,2.0,56,0.00,,,0.00,Wunderground v.1.15,2013-12-17 06:10:00,
2013-12-17 01:15:00,3.7,-8.5,30.32,SSW,204,1.0,2.0,56,0.00,,,0.00,Wunderground v.1.15,2013-12-17 06:15:00,
2013-12-17 01:20:00,3.5,-8.3,30.32,South,169,1.0,1.0,57,0.00,,,0.00,Wunderground v.1.15,2013-12-17 06:20:00,
2013-12-17 01:25:00,3.5,-8.7,30.32,South,169,1.0,1.0,56,0.00,,,0.00,Wunderground v.1.15,2013-12-17 06:25:00,
2013-12-17 01:30:00,3.6,-8.6,30.32,South,169,1.0,1.0,56,0.00,,,0.00,Wunderground v.1.15,2013-12-17 06:30:00,
2013-12-17 01:35:00,3.6,-8.6,30.32,South,169,1.0,1.0,56,0.00,,,0.00,Wunderground v.1.15,2013-12-17 06:35:00,
2013-12-17 01:40:00,3.5,-8.7,30.32,South,169,0.0,1.0,56,0.00,,,0.00,Wunderground v.1.15,2013-12-17 06:40:00,
2013-12-17 01:45:00,3.3,-8.9,30.33,South,169,0.0,1.0,56,0.00,,,0.00,Wunderground v.1.15,2013-12-17 06:45:00,
2013-12-17 01:55:00,3.3,-8.9,30.32,SW,217,1.0,2.0,56,0.00,,,0.00,Wunderground v.1.15,2013-12-17 06:55:00,
2013-12-17 02:00:00,3.2,-9.0,30.32,SW,217,1.0,1.0,56,0.00,,,0.00,Wunderground v.1.15,2013-12-17 07:00:00,
2013-12-17 02:05:00,3.5,-8.7,30.33,SW,218,1.0,1.0,56,0.00,,,0.00,Wunderground v.1.15,2013-12-17 07:05:00,
2013-12-17 02:10:00,4.0,-8.6,30.33,West,271,1.0,1.0,55,0.00,,,0.00,Wunderground v.1.15,2013-12-17 07:10:00,
2013-12-17 02:15:00,4.3,-7.6,30.33,West,271,0.0,1.0,57,0.00,,,0.00,Wunderground v.1.15,2013-12-17 07:15:00,
2013-12-17 02:20:00,4.0,-9.0,30.33,West,271,0.0,1.0,54,0.00,,,0.00,Wunderground v.1.15,2013-12-17 07:20:00,
2013-12-17 02:25:00,3.5,-9.1,30.34,West,271,0.0,1.0,55,0.00,,,0.00,Wunderground v.1.15,2013-12-17 07:25:00,
2013-12-17 02:30:00,3.2,-9.0,30.34,West,271,0.0,0.0,56,0.00,,,0.00,Wunderground v.1.15,2013-12-17 07:30:00,
2013-12-17 02:35:00,3.1,-9.1,30.33,West,271,0.0,0.0,56,0.00,,,0.00,Wunderground v.1.15,2013-12-17 07:35:00,
2013-12-17 02:40:00,2.9,-8.9,30.33,West,271,0.0,0.0,57,0.00,,,0.00,Wunderground v.1.15,2013-12-17 07:40:00,
2013-12-17 02:45:00,2.8,-9.0,30.34,West,271,0.0,0.0,57,0.00,,,0.00,Wunderground v.1.15,2013-12-17 07:45:00,
2013-12-17 02:50:00,2.8,-9.0,30.34,West,271,0.0,0.0,57,0.00,,,0.00,Wunderground v.1.15,2013-12-17 07:50:00,
2013-12-17 02:55:00,2.7,-9.1,30.34,West,271,0.0,0.0,57,0.00,,,0.00,Wunderground v.1.15,2013-12-17 07:55:00,
2013-12-17 03:00:00,2.7,-9.1,30.34,West,271,0.0,0.0,57,0.00,,,0.00,Wunderground v.1.15,2013-12-17 08:00:00,
2013-12-17 03:05:00,2.6,-9.2,30.34,West,271,0.0,0.0,57,0.00,,,0.00,Wunderground v.1.15,2013-12-17 08:05:00,
2013-12-17 03:10:00,2.5,-8.9,30.34,West,271,0.0,0.0,58,0.00,,,0.00,Wunderground v.1.15,2013-12-17 08:10:00,
2013-12-17 03:15:00,2.3,-8.8,30.34,West,272,0.0,1.0,59,0.00,,,0.00,Wunderground v.1.15,2013-12-17 08:15:00,
2013-12-17 03:20:00,2.2,-8.9,30.34,West,272,0.0,0.0,59,0.00,,,0.00,Wunderground v.1.15,2013-12-17 08:20:00,
2013-12-17 03:25:00,1.9,-9.2,30.34,West,272,0.0,0.0,59,0.00,,,0.00,Wunderground v.1.15,2013-12-17 08:25:00,
2013-12-17 03:30:00,1.8,-9.2,30.34,West,271,0.0,0.0,59,0.00,,,0.00,Wunderground v.1.15,2013-12-17 08:30:00,
2013-12-17 03:35:00,1.6,-9.1,30.35,West,271,0.0,0.0,60,0.00,,,0.00,Wunderground v.1.15,2013-12-17 08:35:00,
2013-12-17 03:40:00,1.6,-9.1,30.35,West,271,0.0,0.0,60,0.00,,,0.00,Wunderground v.1.15,2013-12-17 08:40:00,
2013-12-17 03:45:00,1.5,-9.2,30.35,West,271,0.0,0.0,60,0.00,,,0.00,Wunderground v.1.15,2013-12-17 08:45:00,
2013-12-17 03:50:00,1.4,-9.3,30.35,West,271,0.0,0.0,60,0.00,,,0.00,Wunderground v.1.15,2013-12-17 08:50:00,
2013-12-17 03:55:00,1.4,-8.9,30.35,West,271,0.0,0.0,61,0.00,,,0.00,Wunderground v.1.15,2013-12-17 08:55:00,
2013-12-17 04:05:00,1.1,-9.2,30.35,SE,134,0.0,0.0,61,0.00,,,0.00,Wunderground v.1.15,2013-12-17 09:05:00,
2013-12-17 04:10:00,1.0,-9.3,30.35,SE,134,0.0,1.0,61,0.00,,,0.00,Wunderground v.1.15,2013-12-17 09:10:00,
2013-12-17 04:15:00,0.9,-9.1,30.35,SE,134,0.0,0.0,62,0.00,,,0.00,Wunderground v.1.15,2013-12-17 09:15:00,
2013-12-17 04:20:00,0.8,-9.2,30.36,South,169,0.0,1.0,62,0.00,,,0.00,Wunderground v.1.15,2013-12-17 09:20:00,
2013-12-17 04:25:00,0.7,-9.3,30.36,South,169,0.0,1.0,62,0.00,,,0.00,Wunderground v.1.15,2013-12-17 09:25:00,
2013-12-17 04:30:00,0.8,-9.2,30.36,South,169,1.0,2.0,62,0.00,,,0.00,Wunderground v.1.15,2013-12-17 09:30:00,
2013-12-17 04:35:00,0.9,-9.1,30.36,South,169,1.0,1.0,62,0.00,,,0.00,Wunderground v.1.15,2013-12-17 09:35:00,
2013-12-17 04:40:00,0.9,-9.1,30.36,South,169,1.0,1.0,62,0.00,,,0.00,Wunderground v.1.15,2013-12-17 09:40:00,
2013-12-17 04:45:00,0.9,-9.1,30.36,South,169,0.0,1.0,62,0.00,,,0.00,Wunderground v.1.15,2013-12-17 09:45:00,
2013-12-17 04:50:00,0.9,-8.8,30.36,South,169,0.0,1.0,63,0.00,,,0.00,Wunderground v.1.15,2013-12-17 09:50:00,
2013-12-17 04:55:00,0.7,-9.0,30.36,South,169,0.0,0.0,63,0.00,,,0.00,Wunderground v.1.15,2013-12-17 09:55:00,
2013-12-17 05:01:00,0.7,-9.0,30.36,South,169,0.0,1.0,63,0.00,,,0.00,Wunderground v.1.15,2013-12-17 10:01:00,
2013-12-17 05:05:00,0.8,-8.9,30.36,South,169,0.0,1.0,63,0.00,,,0.00,Wunderground v.1.15,2013-12-17 10:05:00,
2013-12-17 05:10:00,0.8,-8.9,30.36,South,169,0.0,1.0,63,0.00,,,0.00,Wunderground v.1.15,2013-12-17 10:10:00,
2013-12-17 05:15:00,0.8,-8.9,30.36,South,169,0.0,0.0,63,0.00,,,0.00,Wunderground v.1.15,2013-12-17 10:15:00,
2013-12-17 05:20:00,0.5,-8.8,30.37,South,169,0.0,0.0,64,0.00,,,0.00,Wunderground v.1.15,2013-12-17 10:20:00,
2013-12-17 05:25:00,0.4,-8.9,30.37,SW,222,0.0,0.0,64,0.00,,,0.00,Wunderground v.1.15,2013-12-17 10:25:00,
2013-12-17 05:30:00,0.4,-8.9,30.37,SW,222,1.0,1.0,64,0.00,,,0.00,Wunderground v.1.15,2013-12-17 10:30:00,
2013-12-17 05:35:00,0.4,-8.9,30.37,SW,222,0.0,0.0,64,0.00,,,0.00,Wunderground v.1.15,2013-12-17 10:35:00,
2013-12-17 05:40:00,0.4,-8.6,30.38,SW,222,0.0,0.0,65,0.00,,,0.00,Wunderground v.1.15,2013-12-17 10:40:00,
2013-12-17 05:45:00,0.3,-9.0,30.38,SW,222,0.0,0.0,64,0.00,,,0.00,Wunderground v.1.15,2013-12-17 10:45:00,
2013-12-17 05:50:00,0.1,-8.9,30.38,SW,222,0.0,0.0,65,0.00,,,0.00,Wunderground v.1.15,2013-12-17 10:50:00,
2013-12-17 05:55:00,-0.1,-9.1,30.39,SW,222,0.0,1.0,65,0.00,,,0.00,Wunderground v.1.15,2013-12-17 10:55:00,
2013-12-17 06:05:00,-0.2,-8.9,30.39,SW,222,1.0,2.0,66,0.00,,,0.00,Wunderground v.1.15,2013-12-17 11:05:00,
2013-12-17 06:10:00,-0.2,-8.9,30.39,SW,222,0.0,0.0,66,0.00,,,0.00,Wunderground v.1.15,2013-12-17 11:10:00,
2013-12-17 06:15:00,-0.1,-8.8,30.40,SW,222,0.0,0.0,66,0.00,,,0.00,Wunderground v.1.15,2013-12-17 11:15:00,
2013-12-17 06:20:00,-0.1,-8.8,30.40,SW,222,0.0,1.0,66,0.00,,,0.00,Wunderground v.1.15,2013-12-17 11:20:00,
2013-12-17 06:25:00,-0.1,-8.8,30.40,SW,222,0.0,1.0,66,0.00,,,0.00,Wunderground v.1.15,2013-12-17 11:25:00,
2013-12-17 06:30:00,0.1,-8.0,30.40,SW,222,0.0,0.0,68,0.00,,,0.00,Wunderground v.1.15,2013-12-17 11:30:00,
2013-12-17 06:35:00,0.1,-8.3,30.40,SW,222,0.0,0.0,67,0.00,,,0.00,Wunderground v.1.15,2013-12-17 11:35:00,
2013-12-17 06:40:00,-0.2,-8.9,30.40,SW,222,0.0,0.0,66,0.00,,,0.00,Wunderground v.1.15,2013-12-17 11:40:00,
2013-12-17 06:45:00,-0.6,-9.3,30.40,SW,222,0.0,0.0,66,0.00,,,0.00,Wunderground v.1.15,2013-12-17 11:45:00,
2013-12-17 06:50:00,-0.9,-9.2,30.40,SW,222,0.0,0.0,67,0.00,,,0.00,Wunderground v.1.15,2013-12-17 11:50:00,
2013-12-17 06:55:00,-1.0,-9.0,30.41,SW,222,0.0,0.0,68,0.00,,,0.00,Wunderground v.1.15,2013-12-17 11:55:00,
2013-12-17 07:00:00,-0.9,-8.9,30.40,SW,222,0.0,0.0,68,0.00,,,0.00,Wunderground v.1.15,2013-12-17 12:00:00,
2013-12-17 07:05:00,-0.8,-8.5,30.41,NW,313,0.0,0.0,69,0.00,,,0.00,Wunderground v.1.15,2013-12-17 12:05:00,
2013-12-17 07:10:00,-0.6,-8.0,30.41,NW,313,0.0,0.0,70,0.00,,,0.00,Wunderground v.1.15,2013-12-17 12:10:00,
2013-12-17 07:15:00,0.2,-6.7,30.41,NW,313,0.0,0.0,72,0.00,,,0.00,Wunderground v.1.15,2013-12-17 12:15:00,
2013-12-17 07:20:00,0.3,-8.1,30.41,NW,313,0.0,0.0,67,0.00,,,0.00,Wunderground v.1.15,2013-12-17 12:20:00,
2013-12-17 07:30:00,-0.5,-9.2,30.41,NW,313,0.0,0.0,66,0.00,,,0.00,Wunderground v.1.15,2013-12-17 12:30:00,
2013-12-17 07:35:00,-0.8,-9.1,30.41,NW,313,0.0,0.0,67,0.00,,,0.00,Wunderground v.1.15,2013-12-17 12:35:00,
2013-12-17 07:40:00,-1.0,-9.3,30.41,NW,313,0.0,1.0,67,0.00,,,0.00,Wunderground v.1.15,2013-12-17 12:40:00,
2013-12-17 07:45:00,-1.0,-9.3,30.41,NW,313,1.0,1.0,67,0.00,,,0.00,Wunderground v.1.15,2013-12-17 12:45:00,
2013-12-17 07:50:00,-1.0,-9.3,30.41,NW,313,0.0,0.0,67,0.00,,,0.00,Wunderground v.1.15,2013-12-17 12:50:00,
2013-12-17 07:55:00,-1.0,-9.3,30.41,NW,313,0.0,0.0,67,0.00,,,0.00,Wunderground v.1.15,2013-12-17 12:55:00,
2013-12-17 08:00:00,-1.0,-9.3,30.42,NW,313,0.0,0.0,67,0.00,,,0.00,Wunderground v.1.15,2013-12-17 13:00:00,
2013-12-17 08:05:00,-0.9,-9.2,30.42,NW,313,0.0,1.0,67,0.00,,,0.00,Wunderground v.1.15,2013-12-17 13:05:00,
2013-12-17 08:10:00,-0.8,-9.1,30.42,NW,313,0.0,0.0,67,0.00,,,0.00,Wunderground v.1.15,2013-12-17 13:10:00,
2013-12-17 08:15:00,-0.6,-8.9,30.42,NW,313,0.0,0.0,67,0.00,,,0.00,Wunderground v.1.15,2013-12-17 13:15:00,
2013-12-17 08:20:00,-0.5,-8.8,30.42,NW,313,0.0,0.0,67,0.00,,,0.00,Wunderground v.1.15,2013-12-17 13:20:00,
2013-12-17 08:25:00,-0.4,-9.1,30.42,NW,313,0.0,0.0,66,0.00,,,0.00,Wunderground v.1.15,2013-12-17 13:25:00,
2013-12-17 08:30:00,-0.5,-9.2,30.42,NW,313,0.0,1.0,66,0.00,,,0.00,Wunderground v.1.15,2013-12-17 13:30:00,
2013-12-17 08:35:00,-0.4,-9.1,30.42,NW,313,0.0,1.0,66,0.00,,,0.00,Wunderground v.1.15,2013-12-17 13:35:00,
2013-12-17 08:40:00,-0.3,-9.0,30.42,NW,313,0.0,0.0,66,0.00,,,0.00,Wunderground v.1.15,2013-12-17 13:40:00,
2013-12-17 08:45:00,0.3,-8.4,30.42,NW,313,0.0,0.0,66,0.00,,,0.00,Wunderground v.1.15,2013-12-17 13:45:00,
2013-12-17 08:50:00,0.8,-8.5,30.42,NW,313,0.0,0.0,64,0.00,,,0.00,Wunderground v.1.15,2013-12-17 13:50:00,
2013-12-17 08:55:00,1.4,-8.3,30.41,NW,313,0.0,0.0,63,0.00,,,0.00,Wunderground v.1.15,2013-12-17 13:55:00,
2013-12-17 09:00:00,1.9,-8.1,30.41,NW,313,0.0,1.0,62,0.00,,,0.00,Wunderground v.1.15,2013-12-17 14:00:00,
2013-12-17 09:05:00,2.2,-7.2,30.41,NW,313,0.0,1.0,64,0.00,,,0.00,Wunderground v.1.15,2013-12-17 14:05:00,
2013-12-17 09:10:00,2.3,-8.1,30.40,NNE,28,0.0,1.0,61,0.00,,,0.00,Wunderground v.1.15,2013-12-17 14:10:00,
2013-12-17 09:15:00,2.3,-7.8,30.40,NE,52,1.0,1.0,62,0.00,,,0.00,Wunderground v.1.15,2013-12-17 14:15:00,
2013-12-17 09:20:00,2.4,-8.0,30.41,NE,52,0.0,0.0,61,0.00,,,0.00,Wunderground v.1.15,2013-12-17 14:20:00,
2013-12-17 09:25:00,2.7,-7.7,30.42,NE,53,0.0,1.0,61,0.00,,,0.00,Wunderground v.1.15,2013-12-17 14:25:00,
2013-12-17 09:35:00,3.1,-7.7,30.42,SSE,157,1.0,1.0,60,0.00,,,0.00,Wunderground v.1.15,2013-12-17 14:35:00,
2013-12-17 09:40:00,3.6,-7.2,30.41,SSE,157,0.0,0.0,60,0.00,,,0.00,Wunderground v.1.15,2013-12-17 14:40:00,
2013-12-17 09:45:00,4.2,-6.6,30.42,SSE,157,0.0,1.0,60,0.00,,,0.00,Wunderground v.1.15,2013-12-17 14:45:00,
2013-12-17 09:50:00,4.4,-7.5,30.42,South,170,0.0,1.0,57,0.00,,,0.00,Wunderground v.1.15,2013-12-17 14:50:00,
2013-12-17 09:55:00,4.9,-6.0,30.42,SW,222,1.0,1.0,60,0.00,,,0.00,Wunderground v.1.15,2013-12-17 14:55:00,
2013-12-17 10:01:00,5.1,-6.5,30.41,SSW,208,1.0,1.0,58,0.00,,,0.00,Wunderground v.1.15,2013-12-17 15:01:00,
2013-12-17 10:05:00,5.3,-6.3,30.41,SE,137,1.0,1.0,58,0.00,,,0.00,Wunderground v.1.15,2013-12-17 15:05:00,
2013-12-17 10:15:00,5.5,-6.5,30.41,ESE,119,1.0,1.0,57,0.00,,,0.00,Wunderground v.1.15,2013-12-17 15:15:00,
2013-12-17 10:20:00,6.2,-5.1,30.41,ESE,119,0.0,1.0,59,0.00,,,0.00,Wunderground v.1.15,2013-12-17 15:20:00,
2013-12-17 10:25:00,6.5,-5.9,30.42,ESE,119,0.0,0.0,56,0.00,,,0.00,Wunderground v.1.15,2013-12-17 15:25:00,
2013-12-17 10:30:00,6.8,-6.0,30.41,ESE,119,0.0,1.0,55,0.00,,,0.00,Wunderground v.1.15,2013-12-17 15:30:00,
2013-12-17 10:35:00,7.0,-5.8,30.41,ESE,119,0.0,0.0,55,0.00,,,0.00,Wunderground v.1.15,2013-12-17 15:35:00,
2013-12-17 10:40:00,7.2,-4.9,30.41,ESE,119,0.0,0.0,57,0.00,,,0.00,Wunderground v.1.15,2013-12-17 15:40:00,
2013-12-17 10:45:00,7.4,-5.4,30.41,East,89,1.0,1.0,55,0.00,,,0.00,Wunderground v.1.15,2013-12-17 15:45:00,
2013-12-17 10:50:00,7.4,-5.4,30.40,NE,50,2.0,3.0,55,0.00,,,0.00,Wunderground v.1.15,2013-12-17 15:50:00,
2013-12-17 10:55:00,7.3,-5.5,30.39,ENE,71,2.0,2.0,55,0.00,,,0.00,Wunderground v.1.15,2013-12-17 15:55:00,
2013-12-17 11:00:00,7.5,-5.7,30.40,ESE,115,2.0,2.0,54,0.00,,,0.00,Wunderground v.1.15,2013-12-17 16:00:00,
2013-12-17 11:10:00,7.8,-5.0,30.40,ENE,67,2.0,2.0,55,0.00,,,0.00,Wunderground v.1.15,2013-12-17 16:10:00,
2013-12-17 11:15:00,8.0,-4.9,30.39,East,95,1.0,2.0,55,0.00,,,0.00,Wunderground v.1.15,2013-12-17 16:15:00,
2013-12-17 11:20:00,8.1,-5.5,30.39,ENE,59,2.0,2.0,53,0.00,,,0.00,Wunderground v.1.15,2013-12-17 16:20:00,
2013-12-17 11:25:00,8.1,-4.8,30.39,ENE,67,2.0,2.0,55,0.00,,,0.00,Wunderground v.1.15,2013-12-17 16:25:00,
2013-12-17 11:30:00,8.2,-4.7,30.39,NE,34,2.0,4.0,55,0.00,,,0.00,Wunderground v.1.15,2013-12-17 16:30:00,
2013-12-17 11:35:00,8.2,-4.7,30.38,ENE,71,2.0,4.0,55,0.00,,,0.00,Wunderground v.1.15,2013-12-17 16:35:00,
2013-12-17 11:40:00,8.1,-5.1,30.38,East,88,3.0,3.0,54,0.00,,,0.00,Wunderground v.1.15,2013-12-17 16:40:00,
2013-12-17 11:45:00,7.9,-4.9,30.37,ENE,61,3.0,3.0,55,0.00,,,0.00,Wunderground v.1.15,2013-12-17 16:45:00,
2013-12-17 11:50:00,7.9,-4.6,30.38,East,87,3.0,3.0,56,0.00,,,0.00,Wunderground v.1.15,2013-12-17 16:50:00,
2013-12-17 11:55:00,7.9,-4.6,30.38,East,83,3.0,3.0,56,0.00,,,0.00,Wunderground v.1.15,2013-12-17 16:55:00,
2013-12-17 12:00:00,8.1,-4.0,30.37,East,82,2.0,2.0,57,0.00,,,0.00,Wunderground v.1.15,2013-12-17 17:00:00,
2013-12-17 12:05:00,8.1,-4.0,30.38,East,80,1.0,2.0,57,0.00,,,0.00,Wunderground v.1.15,2013-12-17 17:05:00,
2013-12-17 12:10:00,8.4,-3.7,30.38,East,80,0.0,0.0,57,0.00,,,0.00,Wunderground v.1.15,2013-12-17 17:10:00,
2013-12-17 12:15:00,8.7,-3.4,30.38,East,80,0.0,0.0,57,0.00,,,0.00,Wunderground v.1.15,2013-12-17 17:15:00,
2013-12-17 12:20:00,9.0,-2.8,30.38,NW,311,0.0,1.0,58,0.00,,,0.00,Wunderground v.1.15,2013-12-17 17:20:00,
2013-12-17 12:25:00,9.5,-1.3,30.38,WNW,288,1.0,1.0,61,0.00,,,0.00,Wunderground v.1.15,2013-12-17 17:25:00,
2013-12-17 12:30:00,10.4,-0.4,30.38,NW,325,1.0,2.0,61,0.00,,,0.00,Wunderground v.1.15,2013-12-17 17:30:00,
2013-12-17 12:35:00,10.5,-1.0,30.38,NNW,339,0.0,2.0,59,0.00,,,0.00,Wunderground v.1.15,2013-12-17 17:35:00,
2013-12-17 12:40:00,10.4,-1.5,30.37,NNW,348,1.0,3.0,58,0.00,,,0.00,Wunderground v.1.15,2013-12-17 17:40:00,
2013-12-17 12:45:00,9.8,-2.4,30.37,NE,39,2.0,3.0,57,0.00,,,0.00,Wunderground v.1.15,2013-12-17 17:45:00,
2013-12-17 12:50:00,9.9,-1.9,30.37,NNE,22,2.0,2.0,58,0.00,,,0.00,Wunderground v.1.15,2013-12-17 17:50:00,
2013-12-17 12:55:00,10.2,-2.0,30.37,NNE,23,1.0,2.0,57,0.00,,,0.00,Wunderground v.1.15,2013-12-17 17:55:00,
2013-12-17 13:01:00,10.6,-1.3,30.37,East,86,1.0,2.0,58,0.00,,,0.00,Wunderground v.1.15,2013-12-17 18:01:00,
2013-12-17 13:10:00,10.8,-1.5,30.36,NW,304,1.0,2.0,57,0.00,,,0.00,Wunderground v.1.15,2013-12-17 18:10:00,
2013-12-17 13:15:00,10.9,-1.0,30.36,SW,232,1.0,2.0,58,0.00,,,0.00,Wunderground v.1.15,2013-12-17 18:15:00,
2013-12-17 13:20:00,11.2,-0.7,30.37,West,261,1.0,4.0,58,0.00,,,0.00,Wunderground v.1.15,2013-12-17 18:20:00,
2013-12-17 13:25:00,11.2,-1.1,30.36,WNW,302,2.0,4.0,57,0.00,,,0.00,Wunderground v.1.15,2013-12-17 18:25:00,
2013-12-17 13:30:00,11.0,-1.3,30.36,NW,321,2.0,2.0,57,0.00,,,0.00,Wunderground v.1.15,2013-12-17 18:30:00,
2013-12-17 13:35:00,11.1,-0.8,30.36,North,355,2.0,2.0,58,0.00,,,0.00,Wunderground v.1.15,2013-12-17 18:35:00,
2013-12-17 13:40:00,10.9,-1.4,30.36,NE,42,2.0,2.0,57,0.00,,,0.00,Wunderground v.1.15,2013-12-17 18:40:00,
2013-12-17 13:45:00,10.9,-1.0,30.36,NE,40,2.0,2.0,58,0.00,,,0.00,Wunderground v.1.15,2013-12-17 18:45:00,
2013-12-17 13:50:00,11.2,-0.7,30.36,NNW,340,1.0,2.0,58,0.00,,,0.00,Wunderground v.1.15,2013-12-17 18:50:00,
2013-12-17 13:55:00,11.3,-0.3,30.36,NNW,329,1.0,3.0,59,0.00,,,0.00,Wunderground v.1.15,2013-12-17 18:55:00,
2013-12-17 14:05:00,11.1,-0.5,30.36,NW,321,1.0,1.0,59,0.00,,,0.00,Wunderground v.1.15,2013-12-17 19:05:00,
2013-12-17 14:10:00,10.8,0.3,30.36,NW,326,1.0,1.0,62,0.00,,,0.00,Wunderground v.1.15,2013-12-17 19:10:00,
2013-12-17 14:15:00,10.6,0.5,30.35,NW,326,1.0,1.0,63,0.00,,,0.00,Wunderground v.1.15,2013-12-17 19:15:00,
2013-12-17 14:25:00,10.4,1.0,30.35,NNE,32,2.0,2.0,65,0.00,,,0.00,Wunderground v.1.15,2013-12-17 19:25:00,
2013-12-17 14:30:00,10.5,1.0,30.34,NNE,26,1.0,2.0,65,0.00,,,0.00,Wunderground v.1.15,2013-12-17 19:30:00,
2013-12-17 14:35:00,10.8,1.7,30.35,North,355,1.0,2.0,66,0.00,,,0.00,Wunderground v.1.15,2013-12-17 19:35:00,
2013-12-17 14:40:00,10.8,2.3,30.35,NNW,346,1.0,2.0,68,0.00,,,0.00,Wunderground v.1.15,2013-12-17 19:40:00,
2013-12-17 14:45:00,10.6,2.4,30.34,ENE,68,2.0,3.0,69,0.00,,,0.00,Wunderground v.1.15,2013-12-17 19:45:00,
2013-12-17 14:50:00,10.2,2.4,30.34,NE,44,3.0,3.0,70,0.00,,,0.00,Wunderground v.1.15,2013-12-17 19:50:00,
2013-12-17 14:55:00,9.9,2.7,30.34,ENE,60,3.0,4.0,72,0.00,,,0.00,Wunderground v.1.15,2013-12-17 19:55:00,
2013-12-17 15:01:00,9.8,3.2,30.34,East,99,2.0,2.0,74,0.00,,,0.00,Wunderground v.1.15,2013-12-17 20:01:00,
2013-12-17 15:05:00,9.7,3.1,30.34,ENE,77,2.0,4.0,74,0.00,,,0.00,Wunderground v.1.15,2013-12-17 20:05:00,
2013-12-17 15:10:00,9.5,2.9,30.34,East,84,2.0,4.0,74,0.00,,,0.00,Wunderground v.1.15,2013-12-17 20:10:00,
2013-12-17 15:15:00,9.3,2.7,30.33,ESE,106,3.0,4.0,74,0.00,,,0.00,Wunderground v.1.15,2013-12-17 20:15:00,
2013-12-17 15:20:00,9.2,3.2,30.33,ENE,74,3.0,4.0,76,0.00,,,0.00,Wunderground v.1.15,2013-12-17 20:20:00,
2013-12-17 15:25:00,9.2,3.2,30.33,ENE,78,3.0,5.0,76,0.00,,,0.00,Wunderground v.1.15,2013-12-17 20:25:00,
2013-12-17 15:30:00,9.0,3.0,30.32,ENE,78,4.0,5.0,76,0.00,,,0.00,Wunderground v.1.15,2013-12-17 20:30:00,
2013-12-17 15:35:00,8.8,2.8,30.32,East,92,4.0,5.0,76,0.00,,,0.00,Wunderground v.1.15,2013-12-17 20:35:00,
2013-12-17 15:45:00,8.7,3.0,30.33,NE,55,3.0,3.0,77,0.00,,,0.00,Wunderground v.1.15,2013-12-17 20:45:00,
2013-12-17 15:50:00,8.7,3.0,30.33,East,84,2.0,3.0,77,0.00,,,0.00,Wunderground v.1.15,2013-12-17 20:50:00,
2013-12-17 15:55:00,8.6,3.1,30.33,ENE,76,2.0,4.0,78,0.00,,,0.00,Wunderground v.1.15,2013-12-17 20:55:00,
2013-12-17 16:00:00,8.6,3.1,30.33,ENE,65,3.0,3.0,78,0.00,,,0.00,Wunderground v.1.15,2013-12-17 21:00:00,
2013-12-17 16:05:00,8.6,3.4,30.33,ENE,69,2.0,3.0,79,0.00,,,0.00,Wunderground v.1.15,2013-12-17 21:05:00,
2013-12-17 16:10:00,8.6,3.4,30.33,ENE,73,2.0,2.0,79,0.00,,,0.00,Wunderground v.1.15,2013-12-17 21:10:00,
2013-12-17 16:15:00,8.5,3.3,30.31,ENE,62,2.0,4.0,79,0.00,,,0.00,Wunderground v.1.15,2013-12-17 21:15:00,
2013-12-17 16:20:00,8.5,3.3,30.32,ENE,69,2.0,2.0,79,0.00,,,0.00,Wunderground v.1.15,2013-12-17 21:20:00,
2013-12-17 16:25:00,8.5,3.3,30.31,ENE,78,2.0,4.0,79,0.00,,,0.00,Wunderground v.1.15,2013-12-17 21:25:00,
2013-12-17 16:30:00,8.4,3.2,30.31,ENE,65,3.0,3.0,79,0.00,,,0.00,Wunderground v.1.15,2013-12-17 21:30:00,
2013-12-17 16:35:00,8.4,3.5,30.31,ENE,64,3.0,3.0,80,0.00,,,0.00,Wunderground v.1.15,2013-12-17 21:35:00,
2013-12-17 16:40:00,8.3,3.4,30.31,NE,56,2.0,4.0,80,0.00,,,0.00,Wunderground v.1.15,2013-12-17 21:40:00,
2013-12-17 16:45:00,8.3,3.1,30.31,ENE,67,3.0,4.0,79,0.00,,,0.00,Wunderground v.1.15,2013-12-17 21:45:00,
2013-12-17 16:50:00,8.2,3.3,30.32,ENE,74,3.0,3.0,80,0.00,,,0.00,Wunderground v.1.15,2013-12-17 21:50:00,
2013-12-17 16:55:00,8.2,3.3,30.31,ENE,58,2.0,3.0,80,0.00,,,0.00,Wunderground v.1.15,2013-12-17 21:55:00,
2013-12-17 17:00:00,8.1,3.7,30.31,ENE,61,3.0,3.0,82,0.00,,,0.00,Wunderground v.1.15,2013-12-17 22:00:00,
2013-12-17 17:05:00,8.0,3.6,30.32,ENE,57,2.0,3.0,82,0.00,,,0.00,Wunderground v.1.15,2013-12-17 22:05:00,
2013-12-17 17:10:00,8.0,3.9,30.31,ENE,57,2.0,2.0,83,0.00,,,0.00,Wunderground v.1.15,2013-12-17 22:10:00,
2013-12-17 17:15:00,7.9,4.1,30.31,ENE,70,1.0,2.0,84,0.00,,,0.00,Wunderground v.1.15,2013-12-17 22:15:00,
2013-12-17 17:20:00,8.0,4.2,30.31,ENE,71,1.0,2.0,84,0.00,,,0.00,Wunderground v.1.15,2013-12-17 22:20:00,
2013-12-17 17:25:00,7.8,4.0,30.31,East,81,1.0,2.0,84,0.00,,,0.00,Wunderground v.1.15,2013-12-17 22:25:00,
2013-12-17 17:30:00,7.8,4.2,30.32,ENE,72,1.0,1.0,85,0.00,,,0.00,Wunderground v.1.15,2013-12-17 22:30:00,
2013-12-17 17:35:00,7.8,4.2,30.32,ESE,103,1.0,1.0,85,0.00,,,0.00,Wunderground v.1.15,2013-12-17 22:35:00,
2013-12-17 17:40:00,7.6,3.8,30.31,East,95,2.0,4.0,84,0.00,,,0.00,Wunderground v.1.15,2013-12-17 22:40:00,
2013-12-17 17:45:00,7.5,3.9,30.31,ENE,71,3.0,4.0,85,0.00,,,0.00,Wunderground v.1.15,2013-12-17 22:45:00,
2013-12-17 17:50:00,7.5,3.9,30.32,ENE,71,2.0,2.0,85,0.00,,,0.00,Wunderground v.1.15,2013-12-17 22:50:00,
2013-12-17 17:55:00,7.5,3.9,30.32,East,82,2.0,2.0,85,0.00,,,0.00,Wunderground v.1.15,2013-12-17 22:55:00,
2013-12-17 18:01:00,7.4,3.8,30.32,East,95,2.0,2.0,85,0.00,,,0.00,Wunderground v.1.15,2013-12-17 23:01:00,
2013-12-17 18:10:00,7.4,3.8,30.32,East,88,1.0,2.0,85,0.00,,,0.00,Wunderground v.1.15,2013-12-17 23:10:00,
2013-12-17 18:15:00,7.4,3.8,30.32,East,88,1.0,1.0,85,0.00,,,0.00,Wunderground v.1.15,2013-12-17 23:15:00,
2013-12-17 18:20:00,7.3,3.7,30.32,East,88,1.0,1.0,85,0.00,,,0.00,Wunderground v.1.15,2013-12-17 23:20:00,
2013-12-17 18:25:00,7.3,3.7,30.31,East,88,2.0,2.0,85,0.00,,,0.00,Wunderground v.1.15,2013-12-17 23:25:00,
2013-12-17 18:30:00,7.2,3.6,30.31,East,82,2.0,2.0,85,0.00,,,0.00,Wunderground v.1.15,2013-12-17 23:30:00,
2013-12-17 18:35:00,7.2,3.6,30.32,East,90,2.0,2.0,85,0.00,,,0.00,Wunderground v.1.15,2013-12-17 23:35:00,
2013-12-17 18:40:00,7.3,4.0,30.31,East,90,1.0,2.0,86,0.00,,,0.00,Wunderground v.1.15,2013-12-17 23:40:00,
2013-12-17 18:45:00,7.3,3.7,30.32,East,90,1.0,1.0,85,0.00,,,0.00,Wunderground v.1.15,2013-12-17 23:45:00,
2013-12-17 18:55:00,7.6,4.3,30.32,East,90,0.0,0.0,86,0.00,,,0.00,Wunderground v.1.15,2013-12-17 23:55:00,
2013-12-17 19:00:00,7.6,4.3,30.32,East,90,0.0,0.0,86,0.00,,,0.00,Wunderground v.1.15,2013-12-18 00:00:00,
2013-12-17 19:05:00,7.5,4.2,30.32,East,90,0.0,0.0,86,0.00,,,0.00,Wunderground v.1.15,2013-12-18 00:05:00,
2013-12-17 19:10:00,7.4,3.8,30.32,East,90,0.0,0.0,85,0.00,,,0.00,Wunderground v.1.15,2013-12-18 00:10:00,
2013-12-17 19:15:00,7.4,3.8,30.32,East,90,0.0,1.0,85,0.00,,,0.00,Wunderground v.1.15,2013-12-18 00:15:00,
2013-12-17 19:20:00,7.4,3.8,30.31,East,90,0.0,0.0,85,0.00,,,0.00,Wunderground v.1.15,2013-12-18 00:20:00,
2013-12-17 19:25:00,7.4,3.8,30.32,East,90,0.0,0.0,85,0.00,,,0.00,Wunderground v.1.15,2013-12-18 00:25:00,
2013-12-17 19:30:00,7.4,4.1,30.32,East,90,0.0,0.0,86,0.00,,,0.00,Wunderground v.1.15,2013-12-18 00:30:00,
2013-12-17 19:35:00,7.4,4.1,30.32,East,90,0.0,0.0,86,0.00,,,0.00,Wunderground v.1.15,2013-12-18 00:35:00,
2013-12-17 19:40:00,7.4,4.1,30.32,East,90,0.0,0.0,86,0.00,,,0.00,Wunderground v.1.15,2013-12-18 00:40:00,
2013-12-17 19:45:00,7.4,4.1,30.31,ESE,110,0.0,1.0,86,0.00,,,0.00,Wunderground v.1.15,2013-12-18 00:45:00,
2013-12-17 19:50:00,7.5,4.2,30.31,ESE,110,1.0,1.0,86,0.00,,,0.00,Wunderground v.1.15,2013-12-18 00:50:00,
2013-12-17 19:55:00,7.5,4.2,30.31,ESE,110,0.0,1.0,86,0.00,,,0.00,Wunderground v.1.15,2013-12-18 00:55:00,
2013-12-17 20:00:00,7.6,4.3,30.31,ESE,110,0.0,1.0,86,0.00,,,0.00,Wunderground v.1.15,2013-12-18 01:00:00,
2013-12-17 20:05:00,7.6,4.3,30.31,ESE,110,0.0,1.0,86,0.00,,,0.00,Wunderground v.1.15,2013-12-18 01:05:00,
2013-12-17 20:10:00,7.7,4.4,30.31,ESE,110,0.0,0.0,86,0.00,,,0.00,Wunderground v.1.15,2013-12-18 01:10:00,
2013-12-17 20:15:00,7.7,4.4,30.31,ENE,77,1.0,3.0,86,0.00,,,0.00,Wunderground v.1.15,2013-12-18 01:15:00,
2013-12-17 20:20:00,7.7,4.4,30.31,ESE,108,2.0,2.0,86,0.00,,,0.00,Wunderground v.1.15,2013-12-18 01:20:00,
2013-12-17 20:25:00,7.6,4.3,30.31,ESE,111,2.0,2.0,86,0.00,,,0.00,Wunderground v.1.15,2013-12-18 01:25:00,
2013-12-17 20:30:00,7.7,4.4,30.31,East,92,1.0,3.0,86,0.00,,,0.00,Wunderground v.1.15,2013-12-18 01:30:00,
2013-12-17 20:35:00,7.6,4.3,30.30,East,89,2.0,3.0,86,0.00,,,0.00,Wunderground v.1.15,2013-12-18 01:35:00,
2013-12-17 20:40:00,7.6,4.3,30.30,East,89,2.0,2.0,86,0.00,,,0.00,Wunderground v.1.15,2013-12-18 01:40:00,
2013-12-17 20:45:00,7.6,4.3,30.30,East,90,2.0,2.0,86,0.00,,,0.00,Wunderground v.1.15,2013-12-18 01:45:00,
2013-12-17 20:50:00,7.7,4.4,30.30,East,90,1.0,1.0,86,0.00,,,0.00,Wunderground v.1.15,2013-12-18 01:50:00,
2013-12-17 20:55:00,7.7,4.4,30.30,East,90,1.0,1.0,86,0.00,,,0.00,Wunderground v.1.15,2013-12-18 01:55:00,
2013-12-17 21:00:00,7.7,4.4,30.29,East,90,0.0,1.0,86,0.00,,,0.00,Wunderground v.1.15,2013-12-18 02:00:00,
2013-12-17 21:05:00,7.8,4.7,30.29,East,91,1.0,1.0,87,0.00,,,0.00,Wunderground v.1.15,2013-12-18 02:05:00,
2013-12-17 21:10:00,7.8,4.5,30.29,East,92,1.0,1.0,86,0.00,,,0.00,Wunderground v.1.15,2013-12-18 02:10:00,
2013-12-17 21:15:00,7.8,4.5,30.28,ESE,111,1.0,1.0,86,0.00,,,0.00,Wunderground v.1.15,2013-12-18 02:15:00,
2013-12-17 21:20:00,8.0,4.9,30.29,ENE,76,1.0,1.0,87,0.00,,,0.00,Wunderground v.1.15,2013-12-18 02:20:00,
2013-12-17 21:25:00,8.1,4.8,30.28,East,90,2.0,2.0,86,0.00,,,0.00,Wunderground v.1.15,2013-12-18 02:25:00,
2013-12-17 21:30:00,8.2,5.1,30.28,East,86,2.0,2.0,87,0.00,,,0.00,Wunderground v.1.15,2013-12-18 02:30:00,
2013-12-17 21:35:00,8.2,4.9,30.28,East,100,2.0,3.0,86,0.00,,,0.00,Wunderground v.1.15,2013-12-18 02:35:00,
2013-12-17 21:40:00,8.1,4.8,30.28,SE,124,2.0,2.0,86,0.00,,,0.00,Wunderground v.1.15,2013-12-18 02:40:00,
2013-12-17 21:45:00,8.3,5.0,30.28,SE,124,1.0,2.0,86,0.00,,,0.00,Wunderground v.1.15,2013-12-18 02:45:00,
2013-12-17 21:50:00,8.4,5.1,30.28,SE,124,0.0,1.0,86,0.00,,,0.00,Wunderground v.1.15,2013-12-18 02:50:00,
2013-12-17 21:55:00,8.4,5.1,30.27,ESE,109,0.0,1.0,86,0.00,,,0.00,Wunderground v.1.15,2013-12-18 02:55:00,
2013-12-17 22:00:00,8.4,5.1,30.27,ESE,109,1.0,1.0,86,0.00,,,0.00,Wunderground v.1.15,2013-12-18 03:00:00,
2013-12-17 22:05:00,8.5,5.2,30.27,ESE,113,0.0,1.0,86,0.00,,,0.00,Wunderground v.1.15,2013-12-18 03:05:00,
2013-12-17 22:10:00,8.6,5.3,30.27,ESE,119,0.0,1.0,86,0.00,,,0.00,Wunderground v.1.15,2013-12-18 03:10:00,
2013-12-17 22:15:00,8.8,5.7,30.27,ESE,121,1.0,1.0,87,0.00,,,0.00,Wunderground v.1.15,2013-12-18 03:15:00,
2013-12-17 22:20:00,9.0,5.9,30.26,ESE,120,1.0,1.0,87,0.00,,,0.00,Wunderground v.1.15,2013-12-18 03:20:00,
2013-12-17 22:25:00,9.3,6.2,30.26,East,97,1.0,1.0,87,0.00,,,0.00,Wunderground v.1.15,2013-12-18 03:25:00,
2013-12-17 22:30:00,9.5,6.4,30.26,East,99,1.0,1.0,87,0.00,,,0.00,Wunderground v.1.15,2013-12-18 03:30:00,
2013-12-17 22:35:00,9.8,6.7,30.26,East,86,1.0,1.0,87,0.00,,,0.00,Wunderground v.1.15,2013-12-18 03:35:00,
2013-12-17 22:40:00,10.0,6.9,30.26,East,88,1.0,2.0,87,0.00,,,0.00,Wunderground v.1.15,2013-12-18 03:40:00,
2013-12-17 22:45:00,10.4,7.6,30.26,East,88,1.0,2.0,88,0.00,,,0.00,Wunderground v.1.15,2013-12-18 03:45:00,
2013-12-17 22:50:00,10.5,7.6,30.26,East,88,1.0,1.0,88,0.00,,,0.00,Wunderground v.1.15,2013-12-18 03:50:00,
2013-12-17 22:55:00,10.5,7.4,30.26,East,88,0.0,1.0,87,0.00,,,0.00,Wunderground v.1.15,2013-12-18 03:55:00,
2013-12-17 23:00:00,10.5,7.4,30.25,East,88,0.0,0.0,87,0.00,,,0.00,Wunderground v.1.15,2013-12-18 04:00:00,
2013-12-17 23:05:00,10.4,7.0,30.25,East,88,1.0,1.0,86,0.00,,,0.00,Wunderground v.1.15,2013-12-18 04:05:00,
2013-12-17 23:10:00,10.3,6.9,30.24,East,88,0.0,0.0,86,0.00,,,0.00,Wunderground v.1.15,2013-12-18 04:10:00,
2013-12-17 23:15:00,9.8,6.5,30.24,East,82,0.0,1.0,86,0.00,,,0.00,Wunderground v.1.15,2013-12-18 04:15:00,
2013-12-17 23:20:00,9.4,6.1,30.24,East,82,1.0,1.0,86,0.00,,,0.00,Wunderground v.1.15,2013-12-18 04:20:00,
2013-12-17 23:25:00,9.4,6.3,30.24,East,82,0.0,1.0,87,0.00,,,0.00,Wunderground v.1.15,2013-12-18 04:25:00,
2013-12-17 23:30:00,9.4,6.3,30.23,ESE,105,0.0,0.0,87,0.00,,,0.00,Wunderground v.1.15,2013-12-18 04:30:00,
2013-12-17 23:35:00,10.3,7.7,30.23,East,89,1.0,1.0,89,0.00,,,0.00,Wunderground v.1.15,2013-12-18 04:35:00,
2013-12-17 23:40:00,11.5,9.1,30.22,ENE,70,2.0,4.0,90,0.00,,,0.00,Wunderground v.1.15,2013-12-18 04:40:00,
2013-12-17 23:45:00,11.8,8.9,30.22,ENE,63,2.0,4.0,88,0.00,,,0.00,Wunderground v.1.15,2013-12-18 04:45:00,
2013-12-17 23:50:00,11.4,8.3,30.22,ENE,64,2.0,2.0,87,0.00,,,0.00,Wunderground v.1.15,2013-12-18 04:50:00,
2013-12-17 23:55:00,11.2,8.1,30.21,ENE,64,1.0,2.0,87,0.00,,,0.00,Wunderground v.1.15,2013-12-18 04:55:00,